FW7829 Weather Reports


Display with metric or nautical units.
time (UTC)temp
F
wind
direction
speed
MPH
gust
MPH
rain 1hr
in
rain 24hr
in
rain mn
in
humidity
%
barometer
mb
20260906225932 99 74 0.0 1.0 0.00 0.00 0.00 43 1009.4
20260906225427 99 108 0.0 1.0 0.00 0.00 0.00 42 1009.6
20260906224923 100 203 0.0 0.0 0.00 0.00 0.00 41 1009.4
20260906224419 101 283 1.0 2.0 0.00 0.00 0.00 42 1009.5
20260906223915 101 235 0.0 1.0 0.00 0.00 0.00 42 1009.3
20260906223411 101 254 0.0 1.0 0.00 0.00 0.00 40 1009.5
20260906222909 100 80 2.0 2.0 0.00 0.00 0.00 43 1009.6
20260906222408 100 42 2.0 3.0 0.00 0.00 0.00 42 1009.7
20260906221906 99 190 0.0 0.0 0.00 0.00 0.00 43 1009.5
20260906221405 99 26 3.0 3.0 0.00 0.00 0.00 44 1009.8
20260906220901 100 193 0.0 1.0 0.00 0.00 0.00 43 1009.7
20260906220356 99 128 0.0 1.0 0.00 0.00 0.00 43 1009.7
20260906215855 99 116 2.0 2.0 0.00 0.00 0.00 43 1009.5
20260906215350 100 278 0.0 0.0 0.00 0.00 0.00 44 1009.4
20260906214848 102 209 1.0 1.0 0.00 0.00 0.00 42 1009.6
20260906214348 101 241 1.0 2.0 0.00 0.00 0.00 43 1009.6
20260906213847 99 192 1.0 2.0 0.00 0.00 0.00 43 1009.6
20260906213342 100 240 0.0 1.0 0.00 0.00 0.00 43 1009.8
20260906212839 101 121 1.0 1.0 0.00 0.00 0.00 43 1009.9
20260906212335 100 194 0.0 1.0 0.00 0.00 0.00 41 1009.9
20260906211834 99 185 0.0 1.0 0.00 0.00 0.00 42 1009.9
20260906211329 100 222 0.0 1.0 0.00 0.00 0.00 42 1009.9
20260906210825 100 136 2.0 3.0 0.00 0.00 0.00 43 1009.9
20260906210325 100 169 2.0 2.0 0.00 0.00 0.00 42 1010.2
20260906205820 100 15 4.0 7.0 0.00 0.00 0.00 42 1010.5
20260906205316 100 145 0.0 1.0 0.00 0.00 0.00 42 1010.5
20260906204812 99 354 0.0 0.0 0.00 0.00 0.00 44 1010.4
20260906204311 98 175 2.0 5.0 0.00 0.00 0.00 45 1010.3
20260906203810 99 164 3.0 3.0 0.00 0.00 0.00 45 1010.6
20260906203306 99 186 1.0 2.0 0.00 0.00 0.00 45 1010.6
20260906202803 99 170 1.0 3.0 0.00 0.00 0.00 45 1010.7
20260906202306 99 38 1.0 5.0 0.00 0.00 0.00 45 1010.8
20260906201756 100 345 1.0 1.0 0.00 0.00 0.00 45 1010.6
20260906201256 100 291 0.0 0.0 0.00 0.00 0.00 45 1010.7
20260906200752 99 203 0.0 0.0 0.00 0.00 0.00 46 1011.0
20260906200248 98 288 0.0 0.0 0.00 0.00 0.00 47 1010.8
20260906195743 100 143 1.0 1.0 0.00 0.00 0.00 45 1011.2
20260906195239 98 1 0.0 0.0 0.00 0.00 0.00 47 1011.0
20260906194735 98 301 0.0 0.0 0.00 0.00 0.00 47 1011.1
20260906194231 98 126 2.0 2.0 0.00 0.00 0.00 47 1011.1
20260906193725 98 197 1.0 2.0 0.00 0.00 0.00 48 1011.2
20260906193220 98 27 0.0 0.0 0.00 0.00 0.00 47 1011.0
20260906192716 98 50 2.0 6.0 0.00 0.00 0.00 46 1011.3
20260906192216 97 326 0.0 0.0 0.00 0.00 0.00 49 1011.1
20260906191710 97 76 0.0 1.0 0.00 0.00 0.00 48 1011.3
20260906191210 98 49 0.0 1.0 0.00 0.00 0.00 48 1011.5
20260906190705 98 35 2.0 2.0 0.00 0.00 0.00 47 1011.5
20260906190159 98 119 2.0 2.0 0.00 0.00 0.00 49 1011.8
20260906185658 98 263 2.0 2.0 0.00 0.00 0.00 49 1011.6
20260906185157 97 268 0.0 0.0 0.00 0.00 0.00 49 1011.8
20260906184651 96 294 1.0 2.0 0.00 0.00 0.00 51 1011.8
20260906184147 96 124 1.0 1.0 0.00 0.00 0.00 50 1011.8
20260906183642 96 357 1.0 3.0 0.00 0.00 0.00 51 1011.9
20260906183139 95 102 2.0 5.0 0.00 0.00 0.00 51 1011.9
20260906182633 96 115 2.0 3.0 0.00 0.00 0.00 53 1012.0
20260906182129 95 168 1.0 1.0 0.00 0.00 0.00 52 1012.2
20260906181630 95 156 1.0 1.0 0.00 0.00 0.00 52 1012.0
20260906181126 96 193 0.0 0.0 0.00 0.00 0.00 52 1012.3
20260906180621 96 37 1.0 2.0 0.00 0.00 0.00 51 1012.2
20260906180115 96 133 1.0 1.0 0.00 0.00 0.00 51 1012.4
20260906175613 95 37 2.0 2.0 0.00 0.00 0.00 53 1012.5
20260906175109 95 175 3.0 5.0 0.00 0.00 0.00 51 1012.5
20260906174607 96 89 4.0 7.0 0.00 0.00 0.00 51 1012.7
20260906174101 96 146 3.0 5.0 0.00 0.00 0.00 52 1012.6
20260906173556 95 95 3.0 5.0 0.00 0.00 0.00 53 1012.8
20260906173053 95 295 0.0 1.0 0.00 0.00 0.00 52 1012.8
20260906172552 95 188 1.0 1.0 0.00 0.00 0.00 53 1012.9
20260906172048 94 294 1.0 1.0 0.00 0.00 0.00 54 1012.9
20260906171547 95 152 1.0 2.0 0.00 0.00 0.00 53 1013.1
20260906171043 94 7 0.0 0.0 0.00 0.00 0.00 56 1013.1
20260906170539 94 165 2.0 3.0 0.00 0.00 0.00 55 1013.1
20260906170038 94 280 0.0 0.0 0.00 0.00 0.00 56 1013.2
20260906165535 93 127 1.0 2.0 0.00 0.00 0.00 57 1013.0
20260906165029 93 269 1.0 1.0 0.00 0.00 0.00 56 1013.0
20260906164529 93 210 0.0 0.0 0.00 0.00 0.00 57 1013.2
20260906164025 94 95 3.0 3.0 0.00 0.00 0.00 54 1013.3
20260906163520 93 269 0.0 1.0 0.00 0.00 0.00 57 1013.1
20260906163015 93 205 0.0 0.0 0.00 0.00 0.00 59 1013.0
20260906162512 93 71 2.0 2.0 0.00 0.00 0.00 58 1013.5
20260906162007 93 124 2.0 2.0 0.00 0.00 0.00 58 1013.5
20260906161502 93 52 3.0 5.0 0.00 0.00 0.00 58 1013.3
20260906161001 93 37 4.0 5.0 0.00 0.00 0.00 59 1013.1
20260906160454 93 96 2.0 2.0 0.00 0.00 0.00 60 1013.1
20260906155952 93 236 0.0 0.0 0.00 0.00 0.00 59 1013.2
20260906155451 93 10 0.0 1.0 0.00 0.00 0.00 60 1013.2
20260906154948 93 124 1.0 2.0 0.00 0.00 0.00 61 1013.1
20260906154443 93 55 0.0 1.0 0.00 0.00 0.00 61 1013.1
20260906153941 92 69 1.0 3.0 0.00 0.00 0.00 62 1013.3
20260906153440 91 7 2.0 2.0 0.00 0.00 0.00 65 1013.0
20260906152936 91 133 2.0 3.0 0.00 0.00 0.00 64 1013.2
20260906152435 91 114 0.0 1.0 0.00 0.00 0.00 65 1012.9
20260906151935 91 98 0.0 1.0 0.00 0.00 0.00 67 1012.8
20260906151430 91 85 0.0 0.0 0.00 0.00 0.00 67 1012.7
20260906150926 90 350 0.0 0.0 0.00 0.00 0.00 69 1012.8
20260906150421 90 120 2.0 2.0 0.00 0.00 0.00 68 1012.8
20260906145921 90 85 1.0 2.0 0.00 0.00 0.00 69 1012.8
20260906145420 90 14 2.0 2.0 0.00 0.00 0.00 69 1012.9
20260906144914 89 346 0.0 0.0 0.00 0.00 0.00 71 1012.6
20260906144409 89 318 1.0 1.0 0.00 0.00 0.00 70 1012.7
20260906143905 89 354 0.0 0.0 0.00 0.00 0.00 71 1012.6
20260906143400 89 126 1.0 2.0 0.00 0.00 0.00 71 1012.9
20260906142856 88 135 0.0 1.0 0.00 0.00 0.00 72 1013.0
20260906142355 87 115 0.0 0.0 0.00 0.00 0.00 74 1013.0
20260906141850 87 36 0.0 0.0 0.00 0.00 0.00 74 1012.7
20260906141344 87 331 0.0 0.0 0.00 0.00 0.00 75 1012.9
20260906140844 86 338 0.0 0.0 0.00 0.00 0.00 75 1012.9
20260906140339 86 341 0.0 0.0 0.00 0.00 0.00 76 1013.0
20260906135836 86 338 0.0 0.0 0.00 0.00 0.00 78 1012.9
20260906135331 85 91 0.0 0.0 0.00 0.00 0.00 79 1012.8
20260906134827 85 69 1.0 1.0 0.00 0.00 0.00 79 1012.8
20260906134322 83 335 0.0 0.0 0.00 0.00 0.00 83 1012.8
20260906133817 81 58 0.0 0.0 0.00 0.00 0.00 86 1012.8
20260906133313 81 86 0.0 0.0 0.00 0.00 0.00 87 1012.9
20260906132808 80 98 0.0 0.0 0.00 0.00 0.00 88 1012.8
20260906132306 80 338 0.0 0.0 0.00 0.00 0.00 89 1012.9
20260906131758 79 18 0.0 0.0 0.00 0.00 0.00 89 1012.7
20260906131254 79 98 0.0 0.0 0.00 0.00 0.00 90 1012.9
20260906130749 79 76 0.0 0.0 0.00 0.00 0.00 90 1012.5
20260906130244 78 105 0.0 0.0 0.00 0.00 0.00 91 1012.7
20260906125742 78 105 1.0 1.0 0.00 0.00 0.00 91 1012.6
20260906125241 78 266 0.0 0.0 0.00 0.00 0.00 91 1012.5
20260906124735 78 322 0.0 0.0 0.00 0.00 0.00 92 1012.6
20260906124232 78 329 0.0 0.0 0.00 0.00 0.00 92 1012.9
20260906123730 78 325 0.0 0.0 0.00 0.00 0.00 92 1012.5
20260906123225 77 317 0.0 0.0 0.00 0.00 0.00 92 1012.6
20260906122725 77 312 0.0 0.0 0.00 0.00 0.00 92 1012.4
20260906122220 77 321 0.0 0.0 0.00 0.00 0.00 92 1012.3
20260906121717 77 313 0.0 0.0 0.00 0.00 0.00 92 1012.3
20260906121213 77 320 0.0 0.0 0.00 0.00 0.00 91 1012.3
20260906120708 77 316 0.0 0.0 0.00 0.00 0.00 91 1012.1
20260906120205 78 301 0.0 0.0 0.00 0.00 0.00 91 1012.3
20260906115700 77 300 0.0 0.0 0.00 0.00 0.00 91 1012.0
20260906115155 78 324 0.0 0.0 0.00 0.00 0.00 91 1012.1
20260906114654 77 320 0.0 0.0 0.00 0.00 0.00 91 1012.0
20260906114150 78 320 0.0 0.0 0.00 0.00 0.00 90 1012.1
20260906113650 78 302 0.0 0.0 0.00 0.00 0.00 90 1011.9
20260906113150 78 296 0.0 0.0 0.00 0.00 0.00 90 1011.8
20260906112649 78 311 0.0 0.0 0.00 0.00 0.00 90 1012.0
20260906112147 78 315 0.0 0.0 0.00 0.00 0.00 89 1012.1
20260906111645 78 357 0.0 0.0 0.00 0.00 0.00 89 1012.0
20260906111140 78 295 0.0 0.0 0.00 0.00 0.00 89 1011.9
20260906110635 78 299 0.0 0.0 0.00 0.00 0.00 89 1011.8
20260906110130 78 276 0.0 0.0 0.00 0.00 0.00 89 1011.9
20260906105624 78 300 0.0 0.0 0.00 0.00 0.00 89 1011.6
20260906105120 78 300 0.0 0.0 0.00 0.00 0.00 89 1011.6
20260906104620 78 300 0.0 0.0 0.00 0.00 0.00 88 1011.6
20260906104114 79 300 0.0 0.0 0.00 0.00 0.00 88 1011.5
20260906103612 79 301 0.0 0.0 0.00 0.00 0.00 88 1011.5
20260906103108 79 284 0.0 0.0 0.00 0.00 0.00 88 1011.8
20260906102608 79 290 0.0 0.0 0.00 0.00 0.00 88 1011.5
20260906102102 79 299 0.0 0.0 0.00 0.00 0.00 88 1011.3
20260906101557 79 299 0.0 0.0 0.00 0.00 0.00 88 1011.5
20260906101051 79 297 0.0 0.0 0.00 0.00 0.00 88 1011.3
20260906100547 79 297 0.0 0.0 0.00 0.00 0.00 87 1011.4
20260906100048 79 294 0.0 0.0 0.00 0.00 0.00 88 1011.5
20260906095547 79 300 0.0 0.0 0.00 0.00 0.00 88 1011.4
20260906095043 79 293 0.0 0.0 0.00 0.00 0.00 88 1011.3
20260906094541 79 303 0.0 0.0 0.00 0.00 0.00 87 1011.2
20260906094038 79 303 0.0 0.0 0.00 0.00 0.00 87 1011.3
20260906093533 79 303 0.0 0.0 0.00 0.00 0.00 86 1011.2
20260906093028 79 303 0.0 0.0 0.00 0.00 0.00 86 1011.2
20260906092523 80 297 0.0 0.0 0.00 0.00 0.00 86 1011.2
20260906092018 80 303 0.0 0.0 0.00 0.00 0.00 85 1011.0
20260906091514 80 288 0.0 0.0 0.00 0.00 0.00 85 1010.9
20260906091010 80 296 0.0 0.0 0.00 0.00 0.00 85 1010.8
20260906090510 80 295 0.0 0.0 0.00 0.00 0.00 85 1010.8
20260906090005 80 291 0.0 0.0 0.00 0.00 0.00 84 1010.6
20260906085504 80 300 0.0 0.0 0.00 0.00 0.00 84 1010.8
20260906085003 80 289 0.0 0.0 0.00 0.00 0.00 84 1010.9
20260906084458 81 293 0.0 0.0 0.00 0.00 0.00 84 1011.0
20260906083957 81 296 0.0 0.0 0.00 0.00 0.00 83 1011.0
20260906083453 81 282 0.0 0.0 0.00 0.00 0.00 83 1010.8
20260906082952 81 281 0.0 0.0 0.00 0.00 0.00 83 1010.8
20260906082448 81 285 0.0 0.0 0.00 0.00 0.00 82 1010.7
20260906081943 81 293 0.0 0.0 0.00 0.00 0.00 82 1010.8
20260906081444 81 279 0.0 0.0 0.00 0.00 0.00 82 1010.7
20260906080940 81 294 0.0 0.0 0.00 0.00 0.00 81 1010.8
20260906080437 81 288 0.0 0.0 0.00 0.00 0.00 81 1010.9
20260906075936 81 283 0.0 0.0 0.00 0.00 0.00 81 1010.9
20260906075426 82 296 0.0 0.0 0.00 0.00 0.00 81 1011.1
20260906074921 82 273 0.0 0.0 0.00 0.00 0.00 81 1011.3
20260906074421 82 287 0.0 0.0 0.00 0.00 0.00 80 1011.0
20260906073920 82 283 0.0 0.0 0.00 0.00 0.00 80 1010.7
20260906073414 82 272 0.0 0.0 0.00 0.00 0.00 80 1010.9
20260906072911 82 270 0.0 0.0 0.00 0.00 0.00 80 1010.9
20260906072406 82 289 0.0 0.0 0.00 0.00 0.00 79 1010.9
20260906071902 82 296 0.0 0.0 0.00 0.00 0.00 79 1011.0
20260906071357 82 297 0.0 0.0 0.00 0.00 0.00 78 1011.0
20260906070853 82 291 0.0 0.0 0.00 0.00 0.00 78 1011.2
20260906070349 83 255 0.0 0.0 0.00 0.00 0.00 77 1011.5
20260906065844 83 292 0.0 0.0 0.00 0.00 0.00 77 1011.4
20260906065338 83 286 0.0 0.0 0.00 0.00 0.00 76 1011.1
20260906064834 83 265 0.0 0.0 0.00 0.00 0.00 76 1011.3
20260906064331 83 311 0.0 0.0 0.00 0.00 0.00 76 1011.3
20260906063831 83 288 0.0 0.0 0.00 0.00 0.00 75 1011.3
20260906063326 83 275 0.0 0.0 0.00 0.00 0.00 75 1011.2
20260906062821 83 278 0.0 0.0 0.00 0.00 0.00 74 1011.3
20260906062320 83 281 0.0 0.0 0.00 0.00 0.00 74 1011.2
20260906061816 83 279 0.0 0.0 0.00 0.00 0.00 74 1011.1
20260906061312 83 260 0.0 0.0 0.00 0.00 0.00 73 1011.0
20260906060807 83 279 0.0 0.0 0.00 0.00 0.00 73 1011.3
20260906060305 84 281 0.0 0.0 0.00 0.00 0.00 73 1011.2
20260906055800 84 281 0.0 0.0 0.00 0.00 0.00 72 1011.2
20260906055255 84 281 0.0 0.0 0.00 0.00 0.00 72 1011.3
20260906054750 84 255 0.0 0.0 0.00 0.00 0.00 71 1011.2
20260906054246 84 254 0.0 0.0 0.00 0.00 0.00 71 1011.4
20260906053742 84 276 0.0 0.0 0.00 0.00 0.00 72 1011.2
20260906053238 84 268 0.0 0.0 0.00 0.00 0.00 71 1011.2
20260906052733 84 271 0.0 0.0 0.00 0.00 0.00 71 1011.3
20260906052229 84 287 0.0 0.0 0.00 0.00 0.00 71 1011.2
20260906051726 85 287 0.0 0.0 0.00 0.00 0.00 71 1010.9
20260906051225 85 290 0.0 0.0 0.00 0.00 0.00 71 1011.0
20260906050720 85 290 0.0 0.0 0.00 0.00 0.00 70 1011.2
20260906050215 85 291 0.0 0.0 0.00 0.00 0.00 70 1011.1
20260906045714 85 271 0.0 0.0 0.00 0.00 0.00 70 1011.1
20260906045209 85 279 0.0 0.0 0.00 0.00 0.00 70 1011.0
20260906044705 85 185 0.0 0.0 0.00 0.00 0.00 70 1011.1
20260906044200 85 258 0.0 0.0 0.00 0.00 0.00 70 1011.5
20260906043656 86 271 0.0 0.0 0.00 0.00 0.00 70 1011.4
20260906043152 86 274 0.0 0.0 0.00 0.00 0.00 69 1011.2
20260906042651 86 291 0.0 0.0 0.00 0.00 0.00 69 1011.3
20260906042145 86 277 0.0 0.0 0.00 0.00 0.00 69 1011.1
20260906041641 86 249 0.0 0.0 0.00 0.00 0.00 69 1011.1
20260906041136 86 278 0.0 0.0 0.00 0.00 0.00 69 1011.3
20260906040632 86 273 0.0 0.0 0.00 0.00 0.00 69 1011.3
20260906040127 86 276 0.0 0.0 0.00 0.00 0.00 69 1011.3
20260906035622 86 283 0.0 0.0 0.00 0.00 0.00 69 1011.1
20260906035118 86 280 0.0 0.0 0.00 0.00 0.00 69 1011.3
20260906034618 86 290 0.0 0.0 0.00 0.00 0.00 69 1011.3
20260906034112 86 291 0.0 0.0 0.00 0.00 0.00 68 1011.0
20260906033608 86 271 0.0 0.0 0.00 0.00 0.00 68 1011.1
20260906033103 86 280 0.0 0.0 0.00 0.00 0.00 68 1011.1
20260906032600 86 265 0.0 0.0 0.00 0.00 0.00 68 1011.1
20260906032059 87 294 0.0 0.0 0.00 0.00 0.00 67 1011.1
20260906031555 87 265 0.0 0.0 0.00 0.00 0.00 67 1011.2
20260906031050 87 214 0.0 0.0 0.00 0.00 0.00 67 1011.0
20260906030549 87 278 0.0 0.0 0.00 0.00 0.00 66 1011.2
20260906030044 87 280 0.0 0.0 0.00 0.00 0.00 66 1011.2
20260906025544 87 181 1.0 1.0 0.00 0.00 0.00 65 1011.4
20260906025042 87 207 0.0 0.0 0.00 0.00 0.00 65 1011.2
20260906024538 87 265 0.0 0.0 0.00 0.00 0.00 65 1011.1
20260906024037 87 216 2.0 2.0 0.00 0.00 0.00 64 1011.0
20260906023534 87 196 0.0 0.0 0.00 0.00 0.00 64 1011.0
20260906023028 87 210 0.0 0.0 0.00 0.00 0.00 65 1010.5
20260906022524 87 253 0.0 0.0 0.00 0.00 0.00 65 1010.8
20260906022019 88 268 0.0 0.0 0.00 0.00 0.00 64 1010.7
20260906021514 88 230 0.0 0.0 0.00 0.00 0.00 64 1010.7
20260906021008 88 217 0.0 0.0 0.00 0.00 0.00 64 1010.8
20260906020507 88 250 0.0 0.0 0.00 0.00 0.00 64 1010.8
20260906020007 88 203 0.0 1.0 0.00 0.00 0.00 63 1010.3
20260906015501 88 93 1.0 1.0 0.00 0.00 0.00 63 1010.5
20260906015000 88 208 0.0 0.0 0.00 0.00 0.00 63 1010.3
20260906014455 89 179 0.0 1.0 0.00 0.00 0.00 62 1010.6
20260906013951 89 161 0.0 0.0 0.00 0.00 0.00 62 1010.4
20260906013447 89 154 0.0 0.0 0.00 0.00 0.00 61 1010.2
20260906012942 90 191 1.0 1.0 0.00 0.00 0.00 60 1010.1
20260906012437 91 168 1.0 1.0 0.00 0.00 0.00 59 1010.1
20260906011936 91 211 1.0 2.0 0.00 0.00 0.00 57 1009.8
20260906011432 92 172 1.0 1.0 0.00 0.00 0.00 57 1009.7
20260906010927 92 106 0.0 0.0 0.00 0.00 0.00 56 1009.8
20260906010422 93 203 1.0 1.0 0.00 0.00 0.00 55 1009.6
20260906005918 93 227 1.0 1.0 0.00 0.00 0.00 54 1009.7
20260906005418 94 44 1.0 1.0 0.00 0.00 0.00 53 1009.4
20260906004916 95 85 1.0 1.0 0.00 0.00 0.00 52 1009.5
20260906004411 95 271 0.0 0.0 0.00 0.00 0.00 49 1009.4
20260906003906 95 276 0.0 0.0 0.00 0.00 0.00 48 1009.3
20260906003402 96 144 0.0 0.0 0.00 0.00 0.00 47 1009.5
20260906002857 96 230 0.0 0.0 0.00 0.00 0.00 47 1009.4
20260906002356 96 21 0.0 0.0 0.00 0.00 0.00 46 1009.5
20260906001852 97 126 1.0 2.0 0.00 0.00 0.00 46 1009.5
20260906001348 97 240 0.0 0.0 0.00 0.00 0.00 45 1009.3
20260906000842 98 251 0.0 0.0 0.00 0.00 0.00 45 1009.3
20260906000343 98 247 0.0 0.0 0.00 0.00 0.00 44 1009.4
20260905235843 98 138 0.0 0.0 0.00 0.00 0.00 44 1009.5
20260905235337 99 201 1.0 2.0 0.00 0.00 0.00 44 1009.2
20260905234833 100 202 1.0 1.0 0.00 0.00 0.00 43 1009.0
20260905234328 100 110 0.0 0.0 0.00 0.00 0.00 43 1009.0
20260905233823 100 170 0.0 0.0 0.00 0.00 0.00 43 1009.1
20260905233318 99 290 0.0 0.0 0.00 0.00 0.00 43 1009.2
20260905232817 100 337 0.0 0.0 0.00 0.00 0.00 43 1009.1
20260905232313 100 234 0.0 1.0 0.00 0.00 0.00 42 1009.2
20260905231809 100 254 0.0 0.0 0.00 0.00 0.00 42 1009.1
20260905231303 100 242 0.0 1.0 0.00 0.00 0.00 42 1009.1
20260905230800 100 294 1.0 1.0 0.00 0.00 0.00 42 1009.1
20260905230257 101 281 0.0 0.0 0.00 0.00 0.00 41 1009.2